This demonstration page uses our WeatherBlox Daily Observations layout. Learn more.

Left ArrowRight Arrow

Hourly Observations for December 27, 2021

Temp ( °F °C ) Dew Point ( °F °C ) Humidity (%) Winds ( mph kmh ) Pressure ( in mb ) Visibility ( mi km ) Precip ( " mm )
12:15 am 00:15 Clear 36 2.3 20 -6.8 51 51 NW 6 9 29.72 1007 10 16 0.00 0.00
12:35 am 00:35 Clear 35 1.8 18 -7.8 49 49 W 9 15 29.77 1008 10 16 0.00 0.00
12:55 am 00:55 Clear 37 2.6 17 -8.6 44 44 W 12 19 29.77 1008 10 16 0.00 0.00
1:15 am 01:15 Clear 36 2.1 15 -9.5 42 42 W 10 17 29.78 1009 10 16 0.00 0.00
1:35 am 01:35 Clear 36 2.2 13 -10.7 38 38 W 8 13 29.79 1009 10 16 0.00 0.00
1:55 am 01:55 Clear 35 1.5 12 -11.3 38 38 W 12 19 29.80 1009 10 16 0.00 0.00
2:15 am 02:15 Clear 37 2.6 10 -12.1 33 33 W 10 17 29.80 1009 10 16 0.00 0.00
2:35 am 02:35 Clear 36 2.3 9 -12.7 32 32 W 12 19 29.81 1010 10 16 0.00 0.00
2:55 am 02:55 Clear 36 2.2 8 -13.2 31 31 W 9 15 29.82 1010 10 16 0.00 0.00
3:15 am 03:15 Clear 35 1.7 8 -13.5 32 32 WNW 12 19 29.82 1010 10 16 0.00 0.00
3:35 am 03:35 Clear 35 1.5 8 -13.2 33 33 WNW 13 20 29.83 1010 10 16 0.00 0.00
3:55 am 03:55 Clear 34 1.2 8 -13.5 33 33 WNW 9 15 29.83 1010 10 16 0.00 0.00
4:15 am 04:15 Clear 34 1.1 8 -13.6 33 33 WNW 12 19 29.84 1011 10 16 0.00 0.00
4:35 am 04:35 Clear 33 0.5 7 -13.8 34 34 W 8 13 29.86 1011 10 16 0.00 0.00
4:55 am 04:55 Clear 32 -0.1 7 -14.1 34 34 W 7 11 29.88 1012 10 16 0.00 0.00
5:15 am 05:15 Clear 31 -0.4 6 -14.3 35 35 W 9 15 29.89 1012 10 16 0.00 0.00
5:35 am 05:35 Clear 31 -0.6 6 -14.3 35 35 WNW 7 11 29.90 1013 10 16 0.00 0.00
5:55 am 05:55 Clear 29 -1.6 6 -14.5 37 37 W 8 13 29.94 1014 10 16 0.00 0.00
6:15 am 06:15 Clear 29 -1.7 6 -14.5 37 37 W 8 13 29.95 1014 10 16 0.00 0.00
6:35 am 06:35 Clear 29 -1.9 5 -15 36 36 WSW 5 7 29.96 1015 10 16 0.00 0.00
6:55 am 06:55 Clear 28 -2.3 5 -15.1 37 37 W 6 9 29.97 1015 10 16 0.00 0.00
7:15 am 07:15 Clear 27 -2.9 6 -14.7 40 40 W 8 13 29.98 1015 10 16 0.00 0.00
7:35 am 07:35 Clear 27 -2.6 5 -15.1 38 38 W 6 9 29.99 1016 10 16 0.00 0.00
7:55 am 07:55 Clear 26 -3.5 5 -15.1 41 41 W 7 11 30.00 1016 10 16 0.00 0.00
8:15 am 08:15 Sunny 26 -3.5 5 -15 41 41 W 8 13 30.00 1016 10 16 0.00 0.00
8:35 am 08:35 Sunny 26 -3.5 5 -15 41 41 W 6 9 30.00 1016 10 16 0.00 0.00
8:55 am 08:55 Sunny 26 -3.6 5 -14.8 42 42 W 7 11 30.00 1016 10 16 0.00 0.00
9:15 am 09:15 Sunny 24 -4.7 7 -13.9 49 49 W 5 7 30.02 1017 10 16 0.00 0.00
9:35 am 09:35 Sunny 25 -3.7 8 -13.5 47 47 W 5 7 30.03 1017 10 16 0.00 0.00
9:55 am 09:55 Sunny 28 -2.1 9 -12.7 44 44 W 3 6 30.02 1017 10 16 0.00 0.00
10:15 am 10:15 Sunny 30 -1.1 9 -12.6 42 42 W 6 9 30.02 1016 10 16 0.00 0.00
10:35 am 10:35 Sunny 31 -0.5 9 -12.6 40 40 W 6 9 30.01 1016 10 16 0.00 0.00
10:55 am 10:55 Sunny 32 0.1 10 -12.5 39 39 W 5 7 30.00 1016 10 16 0.00 0.00
11:15 am 11:15 Sunny 34 1.1 10 -12.5 36 36 W 6 9 29.98 1015 10 16 0.00 0.00
11:35 am 11:35 Sunny 36 2 9 -13 32 32 WSW 3 6 29.98 1015 10 16 0.00 0.00
11:55 am 11:55 Sunny 37 2.8 8 -13.1 30 30 SW 7 11 29.96 1014 10 16 0.00 0.00
12:15 pm 12:15 Sunny 38 3.2 8 -13.6 28 28 SW 7 11 29.93 1014 10 16 0.00 0.00
12:35 pm 12:35 Sunny 38 3.5 7 -14.1 27 27 SSW 6 9 29.92 1013 10 16 0.00 0.00
12:55 pm 12:55 Sunny 39 4 7 -14 26 26 SSW 7 11 29.91 1013 10 16 0.00 0.00
1:15 pm 13:15 Sunny 39 4.1 6 -14.3 25 25 SSW 8 13 29.89 1012 10 16 0.00 0.00
1:35 pm 13:35 Sunny 40 4.2 6 -14.4 25 25 SSW 9 15 29.89 1012 10 16 0.00 0.00
1:55 pm 13:55 Sunny 40 4.6 6 -14.7 23 23 S 9 15 29.87 1012 10 16 0.00 0.00
2:15 pm 14:15 Sunny 41 4.8 4 -15.4 22 22 SSW 12 19 29.86 1011 10 16 0.00 0.00
2:35 pm 14:35 Sunny 40 4.5 3 -16.1 21 21 S 10 17 29.86 1011 10 16 0.00 0.00
2:55 pm 14:55 Sunny 40 4.7 2 -16.5 20 20 S 13 20 29.84 1011 10 16 0.00 0.00
3:15 pm 15:15 Sunny 41 4.8 1 -17 19 19 S 13 20 29.83 1010 10 16 0.00 0.00
3:35 pm 15:35 Sunny 40 4.2 2 -16.6 21 21 S 14 22 29.82 1010 10 16 0.00 0.00
3:55 pm 15:55 Sunny 39 4 3 -16 22 22 S 10 17 29.83 1010 10 16 0.00 0.00
4:15 pm 16:15 Sunny 38 3.6 4 -15.8 23 23 S 10 17 29.82 1010 10 16 0.00 0.00
4:35 pm 16:35 Sunny 38 3.5 4 -15.6 23 23 S 10 17 29.81 1010 10 16 0.00 0.00
4:55 pm 16:55 Sunny 37 2.8 5 -15.1 26 26 S 9 15 29.81 1009 10 16 0.00 0.00
5:15 pm 17:15 Sunny 37 2.5 4 -15.5 25 25 S 8 13 29.80 1009 10 16 0.00 0.00
5:35 pm 17:35 Clear 36 2 4 -15.3 27 27 SSE 8 13 29.80 1009 10 16 0.00 0.00
5:55 pm 17:55 Clear 35 1.6 5 -15 28 28 SSE 8 13 29.80 1009 10 16 0.00 0.00
6:15 pm 18:15 Clear 33 0.8 6 -14.5 31 31 SSE 7 11 29.80 1009 10 16 0.00 0.00
6:35 pm 18:35 Clear 34 0.9 6 -14.2 32 32 S 10 17 29.79 1009 10 16 0.00 0.00
6:55 pm 18:55 Clear 34 1.1 7 -14.1 31 31 S 13 20 29.77 1008 10 16 0.00 0.00
7:15 pm 19:15 Clear 33 0.8 7 -14 32 32 S 12 19 29.78 1008 10 16 0.00 0.00
7:35 pm 19:35 Clear 33 0.5 7 -13.7 34 34 SSE 8 13 29.76 1008 10 16 0.00 0.00
7:55 pm 19:55 Clear 33 0.5 8 -13.5 35 35 SSE 8 13 29.76 1008 10 16 0.00 0.00
8:15 pm 20:15 Clear 33 0.5 8 -13.4 35 35 SSE 9 15 29.75 1007 10 16 0.00 0.00
8:35 pm 20:35 Clear 33 0.8 9 -13 35 35 SSE 12 19 29.72 1006 10 16 0.00 0.00
8:55 pm 20:55 Clear 33 0.8 9 -12.8 36 36 SSE 10 17 29.71 1006 10 16 0.00 0.00
9:15 pm 21:15 Clear 34 1 9 -12.8 35 35 SE 10 17 29.69 1006 10 16 0.00 0.00
9:35 pm 21:35 Clear 33 0.7 9 -12.6 37 37 SE 12 19 29.69 1005 10 16 0.00 0.00
9:55 pm 21:55 Clear 33 0.5 10 -12.5 37 37 SE 14 22 29.67 1005 10 16 0.00 0.00
10:15 pm 22:15 Clear 33 0.7 10 -12.5 37 37 SE 13 20 29.65 1004 10 16 0.00 0.00
10:35 pm 22:35 Clear 33 0.3 10 -12.2 39 39 SE 12 19 29.64 1004 10 16 0.00 0.00
10:55 pm 22:55 Clear 32 0 11 -11.6 42 42 SE 13 20 29.63 1003 10 16 0.00 0.00
11:15 pm 23:15 Clear 32 0 11 -11.5 42 42 SSE 10 17 29.63 1003 10 16 0.00 0.00
11:35 pm 23:35 Clear 32 0 11 -11.5 42 42 SSE 10 17 29.62 1003 10 16 0.00 0.00
11:55 pm 23:55 Clear 32 0 12 -11.2 43 43 SSE 10 17 29.60 1002 10 16 0.00 0.00

Powered by AerisWeather